Regional Weather Roundup
Issued by NWS Grand Forks, ND

Home | Current Version | Previous Version | Graphics & Text | Print | Product List | Glossary On
Versions: 1 2 3 4 5 6 7 8 9 10 11 12 13 14 15 16 17 18 19 20 21 22 23 24 25 26 27 28 29 30 31 32 33 34 35 36 37 38 39 40 41 42 43 44 45 46 47 48 49 50
000
ASUS43 KFGF 190431
RWRFGF
PRAIRIE TO PINES  WEATHER ROUNDUP
NATIONAL WEATHER SERVICE EASTERN NORTH DAKOTA/GRAND FORKS ND
1100 PM CDT THU SEP 18 2014

 **SATELLITE DATA USED TO AUGMENT SKY COVER AT AUTOMATED STATIONS**
 *****  WEATHER ACROSS EASTERN NORTH DAKOTA  *****

CITY           SKY/WX    TMP DP  RH WIND       PRES   REMARKS
GRAND FORKS    CLOUDY    69  58  67 S22G28    29.69S
GRAND FRKS AFB CLOUDY    69  62  79 S15G23    29.68F
GRAND FRKS NWS   N/A     68 N/A N/A S14         N/A
DEVILS LAKE    CLOUDY    70  57  64 S18G25    29.62S
FARGO          CLOUDY    68  56  65 S17G23    29.76F
WAHPETON ARPT  MOCLDY    63  52  67 S13       29.81F
$$

 ***** WEATHER ACROSS CENTRAL AND WESTERN NORTH DAKOTA  *****

CITY           SKY/WX    TMP DP  RH WIND       PRES   REMARKS
BISMARCK       CLOUDY    68  62  81 E9        29.66F
MINOT          CLOUDY    72  59  63 S8        29.58R
JAMESTOWN      CLOUDY    68  59  73 S15       29.71F
MINOT AFB      CLOUDY    72  61  68 SW8       29.56R
GARRISON         N/A     70  65  84 SW7       29.63F
WILLISTON      CLOUDY    66  54  65 S5        29.60R
DICKINSON      CLOUDY    68  60  75 SW10      29.68R
HETTINGER      CLOUDY    68  62  81 SE3       29.72R
$$

 *****  OTHER AIRPORT OBSERVATIONS IN OUR AREA  *****

CITY           SKY/WX    TMP DP  RH WIND       PRES   REMARKS
WALHALLA         N/A     66  64  94 S15G21    29.58F
GRAFTON AIRPOR FAIR      66  59  77 S17       29.64F
VALLEY CITY AR FAIR      66  63  88 S16       29.73F
CANDO          FAIR      68  59  73 S12       29.59F
CAVALIER APRT  FAIR      66  61  82 S16G24    29.59F
GWINNER        CLEAR     66  55  68 S10       29.77F
SHEYENNE NWR     N/A     65  57  76 S8        29.95
ROLLA          FAIR      66  63  88 SW16      29.58F
 ***** THE ABOVE OBSERVATIONS ARE NON NWS ARE NOT QUALITY
       CONTROLLED AND MAY MIS-REPORT RAIN FOR SNOW...
$$

  *****  WEATHER ACROSS NORTHERN MINNESOTA  *****

CITY           SKY/WX    TMP DP  RH WIND       PRES   REMARKS
FLAG ISLAND    CLOUDY    59  54  82 S20       29.72F
WARROAD        CLOUDY    63  55  77 S14G26    29.71F
ROSEAU         MOCLDY    63  55  77 S18G26    29.70F
HALLOCK        CLOUDY    68  57  68 S24G32    29.64F
THF RVR FALLS  MOCLDY    64  55  72 S20G26    29.73F
BAUDETTE       CLOUDY    58  53  84 S12       29.78F
WASKISH        CLOUDY    57  54  88 SE10G18   29.81F
CROOKSTON      CLOUDY    66  57  72 S23G31    29.73F
STEPHEN NDAWN    N/A     68  57  68 S20         N/A
GREENBUSH NDAW   N/A     64  57  77 S15         N/A
$$
  *****  WEATHER ACROSS CENTRAL AND WEST MINNESOTA  *****

CITY           SKY/WX    TMP DP  RH WIND       PRES   REMARKS
FOSSTON        MOCLDY    63  52  67 S17G24    29.79F
BEMIDJI        PTCLDY    58  54  86 S12G17    29.84F
PARK RAPIDS    PTCLDY    59  55  87 SE15      29.88S
ELBOW LAKE     FAIR      63  51  66 S17       29.85S
WADENA         PTCLDY    57  52  82 SE7       29.87F
DETROIT LAKES  MOCLDY    64  52  63 S15       29.84S
MOORHEAD       CLOUDY    66  59  77 S14G21    29.78F
FERGUS FALLS   CLOUDY    64  50  59 S13       29.84S
MORRIS MN      PTCLDY    63  52  67 S13       29.86F
STAPLES        PTCLDY    57  54  88 SE8       29.90S
$$
  *****  WEATHER ELSEWHERE ACROSS MINNESOTA  *****

CITY           SKY/WX    TMP DP  RH WIND       PRES   REMARKS
DULUTH         CLOUDY    49  46  90 SE9       30.01S FOG
INTRNTL FALLS  CLOUDY    52  48  86 S7        29.86F
ELY            CLOUDY    46  45  93 S10       29.96F
CLOQUET        FOG       48  46  93 E3        30.00S VSB 1
WHEATON        PTCLDY    61  54  77 SE14      29.85S
BRAINERD       PTCLDY    58  55  90 SE10      29.92F
HIBBING        CLOUDY    49  46  90 S9        29.97F
ALEXANDRIA     PTCLDY    62  51  67 S13       29.91S
SAINT CLOUD    CLEAR     63  52  67 S10       29.94S
MINNEAPOLIS    PTCLDY    60  54  80 SE12      29.99S
$$

  *****  WEATHER ACROSS SOUTH DAKOTA  *****

CITY           SKY/WX    TMP DP  RH WIND       PRES   REMARKS
SIOUX FALLS    PTCLDY    64  55  72 S15G24    29.91S
BROOKINGS      NOT AVBL
WATERTOWN      MOCLDY    63  55  75 S17       29.85F
HURON          PTCLDY    65  57  75 S15G23    29.81F
SISSETON         N/A     62  56  80 S9        29.81S
ABERDEEN       PTCLDY    66  57  72 S16G23    29.77F
MITCHELL       PTCLDY    67  58  72 S17       29.84F
PIERRE         CLEAR     68  60  75 SE12      29.72F
MOBRIDGE       MOCLDY    67  61  81 S13       29.70S
RAPID CITY     MOCLDY    71  54  54 S10       29.72F
$$

  *****  SOME WEATHER IN NEARBY STATES *****

CITY           SKY/WX    TMP DP  RH WIND       PRES   REMARKS
GLASGOW MT     MOCLDY    68  51  54 S6        29.62S
GREAT FALLS MT CLEAR     61  44  53 W9        29.75R
CHEYENNE WY    CLEAR     68  49  50 SE15      30.00F
SCOTTSBLUFF NE CLEAR     67  62  84 E12       29.86S
OMAHA NE       PTCLDY    63  57  81 SE15      29.98S
DES MOINES IA  CLEAR     63  56  78 SE9       30.04F
DAVENPORT IA   PTCLDY    55  48  77 E7        30.12R
CHICAGO IL     PTCLDY    58  53  84 N3        30.16S
EAU CLAIRE WI  PTCLDY    55  51  86 SE9       30.06F
LA CROSSE WI   CLEAR     58  53  84 SE7       30.09S
$$

  *****  SOME NATIONAL WEATHER *****

CITY           SKY/WX    TMP DP  RH WIND       PRES   REMARKS
LA GUARDIA NY  PTCLDY    64  51  62 NE9       30.11R
RALEIGH NC     MOCLDY    70  61  73 SE6       30.08R
ATLANTA GA     MOCLDY    73  66  78 CALM      30.01F
NEW ORLEANS LA CLOUDY    78  70  76 CALM      29.92F
OKLAHOMA CITY  MOCLDY    71  67  87 S5        29.97R
ALBUQUERQUE NM MOCLDY    67  57  70 S5        30.07R
SALT LAKE CITY MOCLDY    70  54  56 N17       29.86R HAZE
LOS ANGELES CA PTCLDY    69  62  78 W13       29.85R
BOISE ID       CLEAR     73  43  33 CALM      29.82R
SEATTLE WA     CLOUDY    64  56  75 SW9       29.94R
$$

*** WEATHER ACROSS MANITOBA...SASKATCHEWAN AND ONTARIO ***
                ***ONTARIO***

CITY           SKY/WX    TMP DP  RH WIND       PRES   REMARKS
GERALDTON      MOCLDY    34  30  86 S3        30.06F
THUNDER BAY    CLOUDY    45  41  87 E6        30.06F
SIOUX LOOKOUT  MOCLDY    48  45  87 S9        29.84F
TORONTO        CLEAR     45  37  76 N10       30.24R
BIG TROUT LK   PTCLDY    50  36  57 S17G24    29.71F
PICKLE LAKE    NOT AVBL
DRYDEN         CLOUDY    50  45  81 S14G23    29.82F
KENORA         LGT RAIN  57  52  82 S16G28    29.73F
$$
                *** MANITOBA***

CITY           SKY/WX    TMP DP  RH WIND       PRES   REMARKS
BRANDON        CLOUDY    57  55  94 SE2       29.51F
DAUPHIN        PTCLDY    70  61  73 SW13      29.43F
ISLAND LAKE    LGT RAIN  50  48  93 S12       29.54
PILOT MOUND    NOT AVBL
THE PAS        NOT AVBL
THOMPSON       DRIZZLE  N/A N/A N/A W3          N/A
WINNIPEG       MOCLDY    68  59  73 S23G33    29.56F
LYNN LAKE      CLOUDY    48  46  93 NW6       29.46S
CHURCHILL      CLOUDY    41  41 100 SW9       29.38F FOG
GILLAM         LGT RAIN  48  48 100 S12G17    29.44  FOG
$$
                ***SASKATCHEWAN***

CITY           SKY/WX    TMP DP  RH WIND       PRES   REMARKS
ESTEVAN        MOCLDY    59  54  82 SW8       29.55S
KINDERSLEY     MOCLDY    59  52  77 N8        29.56R
LLOYDMINSTER   MOCLDY    50  45  81 W6        29.57S
PRINCE ALBERT  CLOUDY    55  52  88 SW6       29.51S
REGINA         MOCLDY    61  55  82 W6        29.53R
YORKTON        MOCLDY    63  57  82 S8        29.46S
N. BATTLEFORD  CLOUDY    55  52  88 N3        29.57R
LA RONGE       FOG       43  43 100 S2        29.52R VSB 1/4
SASKATOON      MOCLDY    54  50  87 NE6       29.54R
SWIFT CURRENT  PTCLDY    59  50  72 SW10      29.56R
$$
NOTE: THESE ARE AUTOMATED STATIONS WITH LIMITED QUALITY CONTROL
      "FAIR" INDICATES FEW OR NO CLOUDS BELOW 12,000 FEET WITH NO
      SIGNIFICANT WEATHER AND/OR OBSTRUCTIONS TO VISIBILITY.
      SKY/WX - SKY CONDITION AND SIGNIFICANT WEATHER.
      TMP - AIR TEMPERATURE.    DP   - DEWPOINT TEMPERATURE.
      RH  - RELATIVE HUMIDITY.  PRES - PRESSURE.
      HX  - HEAT INDEX.         WCI  - WIND CHILL INDEX.
$


USA.gov is the U.S. government's official web portal to all federal, state and local government web resources and services.